Forside
METAR-TAF:

METAR-TAF

Lufthavne :

Tri-County Regional Airport

Lone Rock, Wisconsin, USA

Breddekreds: 43-12-43N, længdekreds: 090-10-53W, højde: 219 m

Aktuelle vejr

Denne rapport blev lavet for 35 minutter siden, kl. 02:56 UTC
Vind 8 kt fra vestnordvest
Temperatur -6°C
Fugtighed 58%
Tryk 1019 hPa
Sigt: 16.1 km
skyfri

METAR: KLNR 280256Z AUTO 29008KT 10SM CLR M06/M13 A3009 RMK AO2 SLP195 T10611133 51007

Tid: 21:31 (03:31 UTC)


TAF: fraværende

Vejrobservationer og prognoser fra mere end 4000 lufthavne (METAR og TAF).

De gule og røde prikker repræsenterer de meteorologiske stationer.

Flyt musen over at se navnet på stationen.

Så klik over at se vejr observationer og prognoser.

At skifte det kort: Klik på de grønne knapper med et sort kors for at zoome ind; på den grønne knap med en bindestreg for at zoome ud; eller på de grønne pile for tilstødende kort.


METAR-TAF: